Location: Unspecified
(0.0000°N, 0.0000°E)
Time: 14:12:51
(UTC+00:00)

Vanguard 1 Rocket - Pass Details

Date: 27 March 2018
Orbit: 654 x 4223 km, 34.3° (Epoch: 21 April)

Event Time Altitude Azimuth Distance (km) Brightness Sun altitude
Rises 06:10:24 0° 226° (SW) 8,143 11.8 1.2°
Reaches altitude 10° 06:19:45 10° 210° (SSW) 6,543 11.5 3.6°
Maximum altitude 06:31:40 19° 172° (S) 4,744 11.2 6.5°
Drops below altitude 10° 06:40:00 10° 133° (SE) 4,460 11.7 8.6°
Sets 06:44:23 0° 114° (ESE) 4,888 12.4 9.7°
